EW3708 Weather Reports


Display with metric or nautical units.
time (UTC)temp
F
wind
direction
speed
MPH
gust
MPH
rain 1hr
in
rain 24hr
in
rain mn
in
humidity
%
barometer
mb
20260502183013 52 317 2.0 6.0 0.00 0.28 0.23 43 1011.7
20260502181512 50 289 0.0 6.0 0.00 0.28 0.23 43 1011.8
20260502163007 51 355 2.0 7.0 0.00 0.28 0.23 49 1012.1
20260502161503 50 53 1.0 6.0 0.00 0.28 0.23 54 1012.0
20260502151603 46 304 2.0 5.0 0.00 0.28 0.23 57 1012.2
20260502150105 47 351 2.0 7.0 0.00 0.28 0.23 58 1012.2
20260502123056 39 292 1.0 3.0 0.00 0.28 0.23 90 1012.2
20260502121555 39 317 2.0 7.0 0.00 0.28 0.23 89 1012.2
20260502120107 39 294 1.0 3.0 0.00 0.28 0.23 92 1012.2
20260502114600 38 294 1.0 3.0 0.00 0.28 0.23 92 1012.3
20260502113053 38 286 1.0 2.0 0.00 0.28 0.23 92 1012.3
20260502111558 38 286 0.0 2.0 0.00 0.28 0.23 92 1012.4
20260502110051 37 286 0.0 3.0 0.00 0.28 0.23 91 1012.3
20260502104553 37 286 0.0 3.0 0.00 0.28 0.23 91 1012.3
20260502103048 37 286 1.0 3.0 0.00 0.28 0.23 91 1012.0
20260502101550 37 286 1.0 5.0 0.01 0.28 0.23 91 1011.7
20260502070026 43 198 0.0 0.0 0.04 0.26 0.21 93 1010.6
20260502064522 43 198 0.0 0.0 0.04 0.26 0.21 93 1010.8
20260502063021 43 198 0.0 0.0 0.04 0.25 0.20 93 1011.0
20260502061519 43 198 0.0 0.0 0.05 0.24 0.19 92 1011.3
20260502060017 43 198 0.0 2.0 0.07 0.22 0.17 92 1011.6
20260502054519 43 252 0.0 4.0 0.11 0.22 0.17 92 1011.7
20260502053014 44 155 0.0 2.0 0.13 0.21 0.16 92 1011.8
20260502051529 44 155 0.0 2.0 0.12 0.18 0.14 92 1011.9
20260502050010 44 247 0.0 2.0 0.10 0.15 0.10 93 1012.0
20260502044510 45 247 0.0 2.0 0.06 0.11 0.06 92 1012.1
20260502043006 45 247 0.0 1.0 0.03 0.08 0.03 92 1012.0
20260502041505 45 247 0.0 2.0 0.01 0.06 0.01 92 1011.9
20260502040003 45 247 1.0 2.0 0.01 0.05 0.00 92 1011.6
20260502034502 45 247 0.0 1.0 0.01 0.05 0.05 92 1011.4
20260502033002 45 247 0.0 1.0 0.01 0.05 0.05 92 1011.5
20260502031501 45 247 0.0 2.0 0.02 0.05 0.05 91 1011.4
20260502030103 45 247 0.0 1.0 0.01 0.04 0.04 91 1011.3
20260502024600 45 247 1.0 2.0 0.01 0.04 0.04 91 1011.3
20260502023100 45 280 0.0 0.0 0.01 0.04 0.04 91 1011.5
20260502021600 45 280 0.0 0.0 0.00 0.03 0.03 90 1011.8
20260502020109 46 280 0.0 0.0 0.01 0.03 0.03 90 1011.7
20260502014558 46 280 0.0 0.0 0.01 0.04 0.03 89 1011.7
20260502013102 46 280 0.0 1.0 0.01 0.04 0.03 88 1011.7
20260502011558 46 280 0.0 1.0 0.02 0.04 0.03 87 1011.6
20260502010058 47 280 0.0 1.0 0.02 0.03 0.02 87 1011.5
20260502004557 47 280 0.0 1.0 0.02 0.03 0.02 85 1011.4
20260502003055 48 280 0.0 1.0 0.02 0.03 0.02 82 1011.4
20260502001555 49 280 0.0 2.0 0.01 0.02 0.01 77 1011.3
20260502000054 50 280 1.0 3.0 0.00 0.01 0.00 68 1011.4
20260501234557 51 213 0.0 1.0 0.00 0.03 0.00 65 1010.9
20260501233058 51 213 0.0 2.0 0.00 0.03 0.00 62 1010.5
20260501231559 52 213 0.0 2.0 0.00 0.03 0.00 61 1010.4
20260501230055 52 213 0.0 1.0 0.00 0.03 0.00 60 1010.4
20260501224551 53 213 0.0 3.0 0.00 0.03 0.00 57 1010.4
20260501223050 53 194 1.0 2.0 0.00 0.03 0.00 57 1010.4
20260501221550 53 194 0.0 5.0 0.00 0.03 0.00 54 1010.3
20260501220050 54 216 2.0 8.0 0.00 0.03 0.00 52 1010.5
20260501214559 55 298 3.0 6.0 0.00 0.03 0.00 48 1010.2
20260501213054 55 249 1.0 3.0 0.00 0.03 0.00 45 1010.1
20260501211548 56 242 1.0 3.0 0.00 0.03 0.00 45 1009.9
20260501210046 56 262 1.0 3.0 0.00 0.03 0.00 44 1009.9
20260501204545 56 301 1.0 4.0 0.00 0.03 0.00 44 1010.0
20260501203043 56 277 2.0 4.0 0.00 0.03 0.00 45 1010.2
20260501201547 57 241 1.0 5.0 0.00 0.03 0.00 41 1010.1
20260501200041 57 229 2.0 5.0 0.00 0.03 0.00 39 1010.1
20260501194549 58 179 3.0 8.0 0.00 0.03 0.00 39 1010.3
20260501193037 59 294 1.0 8.0 0.00 0.03 0.00 40 1010.3
20260501191536 61 245 3.0 8.0 0.00 0.03 0.00 37 1010.4
20260501190036 60 203 5.0 11.0 0.00 0.03 0.00 37 1010.6
20260501184532 58 311 2.0 5.0 0.00 0.03 0.00 42 1010.6